Location: Ch�ze
(42.9000°N, 0.0333°W)
Time: 23:55:53
(UTC+00:00)

Feng Yun 1-1 Rocket - Pass Details

Date: 24 January 2021
Orbit: 830 x 932 km, 99.2° (Epoch: 24 February)

Event Time Altitude Azimuth Distance (km) Brightness Sun altitude
Rises 17:38:51 0° 149° (SSE) 3,373 7.2 -7.0°
Reaches altitude 10° 17:41:14 10° 144° (SE) 2,451 6.5 -7.4°
Maximum altitude 17:46:28 52° 69° (ENE) 1,057 4.4 -8.3°
Drops below altitude 10° 17:51:51 10° 355° (N) 2,521 6.6 -9.2°
Sets 17:54:19 0° 351° (N) 3,479 7.3 -9.6°
